Savannah, GA

12:46 PM EST on December 18, 2017 (GMT -0500)
Savannah International

Weather History for KSAV - April, 2014

Change the Weather History Date:

Monday, April 7, 2014

  Actual Average Record
Temperature  
Mean Temperature 69 °F 64 °F  
Max Temperature 76 °F 76 °F 92 °F (1967)
Min Temperature 61 °F 52 °F 35 °F (1950)
Degree Days  
Heating Degree Days 0 4  
Month to date heating degree days 1 28  
Since 1 July heating degree days 1646 1755  
Cooling Degree Days 4 2  
Month to date cooling degree days 31 14  
Year to date cooling degree days 61 56  
Growing Degree Days 17 (Base 50)    
Moisture  
Dew Point 62 °F    
Average Humidity 84    
Maximum Humidity 93    
Minimum Humidity 74    
Precipitation  
Precipitation 1.28 in 0.11 in 3.03 in (2003)
Month to date precipitation 1.60 0.77  
Year to date precipitation 8.36 10.98  
Sea Level Pressure  
Sea Level Pressure 29.87 in    
Wind  
Wind Speed 9 mph (ESE)    
Max Wind Speed 32 mph    
Max Gust Speed 43 mph    
Visibility 6 miles    
Events Rain , Thunderstorm    
T = Trace of Precipitation, MM = Missing Value Source: NWS Daily Summary

Daily Weather History Graph

Daily Weather History Graph

Search for Another Location

Airport or City:

Trip Planner

Search our weather history database for the weather conditions in past years. The results will help you decide how hot, cold, wet, or windy it might be!

Date:

Astronomy

Apr. 07, 2014 Rise Set
Actual Time 7:05 AM EDT 7:48 PM EDT
Civil Twilight 6:40 AM EDT 8:13 PM EDT
Nautical Twilight 6:11 AM EDT 8:42 PM EDT
Astronomical Twilight 5:41 AM EDT 9:12 PM EDT
Moon 1:09 PM EDT (4/7) 2:15 AM EDT (4/7)
Length of Visible Light 13h 32m
Length of Day
12h 43m
First Quarter, 53% of the Moon is Illuminated
Apr 7
First Quarter
Apr 15
Full
Apr 22
Last Quarter
Apr 29
New
May 6
First Quarter

Hourly Weather History & Observations

Time (EDT) Temp. Dew Point Humidity Pressure Visibility Wind Dir Wind Speed Gust Speed Precip Events Conditions
12:13 AM 60.8 °F 55.4 °F 82% 30.00 in 8.0 mi East 4.6 mph - N/A   Overcast
12:53 AM 61.0 °F 55.9 °F 83% 30.00 in 8.0 mi ENE 3.5 mph - N/A   Overcast
1:53 AM 61.0 °F 55.9 °F 83% 29.97 in 7.0 mi East 8.1 mph - N/A   Overcast
2:53 AM 61.0 °F 57.0 °F 87% 29.94 in 6.0 mi East 5.8 mph - N/A   Overcast
3:53 AM 61.0 °F 57.9 °F 90% 29.92 in 6.0 mi East 8.1 mph - N/A   Overcast
4:53 AM 62.1 °F 59.0 °F 90% 29.91 in 5.0 mi East 6.9 mph - N/A   Overcast
5:33 AM 62.6 °F 59.0 °F 88% 29.91 in 5.0 mi ESE 4.6 mph - N/A   Overcast
5:45 AM 62.6 °F 59.0 °F 88% 29.91 in 4.0 mi ESE 5.8 mph - N/A   Overcast
5:53 AM 63.0 °F 60.1 °F 90% 29.91 in 4.0 mi Calm Calm - N/A   Overcast
6:53 AM 64.0 °F 60.1 °F 87% 29.91 in 5.0 mi ESE 4.6 mph - N/A   Overcast
7:11 AM 64.4 °F 60.8 °F 88% 29.90 in 5.0 mi ESE 6.9 mph - N/A   Mostly Cloudy
7:53 AM 64.9 °F 62.1 °F 90% 29.91 in 5.0 mi SSE 4.6 mph - N/A   Overcast
8:53 AM 70.0 °F 64.9 °F 84% 29.91 in 9.0 mi South 9.2 mph - N/A   Overcast
9:53 AM 72.0 °F 66.0 °F 81% 29.87 in 7.0 mi South 15.0 mph - 0.01 in   Overcast
10:53 AM 73.0 °F 66.0 °F 79% 29.88 in 10.0 mi South 12.7 mph - N/A   Overcast
11:53 AM 73.9 °F 66.0 °F 76% 29.89 in 10.0 mi South 8.1 mph - N/A   Overcast
12:53 PM 73.9 °F 66.0 °F 76% 29.87 in 10.0 mi SSE 9.2 mph - N/A   Overcast
1:53 PM 75.0 °F 66.0 °F 73% 29.85 in 10.0 mi South 13.8 mph - N/A   Overcast
2:53 PM 75.0 °F 66.0 °F 73% 29.83 in 10.0 mi South 12.7 mph - N/A   Overcast
3:53 PM 75.0 °F 66.0 °F 73% 29.79 in 10.0 mi ESE 6.9 mph - N/A   Overcast
4:47 PM 73.4 °F 66.2 °F 78% 29.82 in 10.0 mi Calm Calm - N/A Thunderstorm Thunderstorm
4:53 PM 72.0 °F 66.0 °F 81% 29.85 in 5.0 mi NNW 17.3 mph 23.0 mph N/A Rain , Thunderstorm Light Thunderstorms and Rain
4:56 PM 69.8 °F 62.6 °F 78% 29.88 in 1.0 mi WNW 31.1 mph 42.6 mph 0.00 in Rain , Thunderstorm Heavy Thunderstorms and Rain
5:03 PM 64.4 °F 60.8 °F 88% 29.88 in 0.5 mi NW 18.4 mph 42.6 mph 0.14 in Rain , Thunderstorm Heavy Thunderstorms and Rain
5:13 PM 64.4 °F 60.8 °F 88% 29.88 in 1.2 mi NNW 18.4 mph - 0.33 in Rain , Thunderstorm Thunderstorms and Rain
5:18 PM 64.4 °F 60.8 °F 88% 29.86 in 4.0 mi NNW 17.3 mph - 0.35 in Rain , Thunderstorm Thunderstorms and Rain
5:29 PM 64.4 °F 60.8 °F 88% 29.84 in 8.0 mi North 12.7 mph - 0.37 in Rain Light Rain
5:53 PM 63.0 °F 60.1 °F 90% 29.83 in 8.0 mi North 10.4 mph - 0.42 in Rain Light Rain
6:00 PM 62.6 °F 60.8 °F 94% 29.83 in 8.0 mi North 5.8 mph - 0.02 in Rain , Thunderstorm Light Thunderstorms and Rain
6:22 PM 62.6 °F 60.8 °F 94% 29.83 in 6.0 mi NNE 6.9 mph - 0.10 in Rain Light Rain
6:53 PM 64.0 °F 61.0 °F 90% 29.84 in 3.0 mi East 6.9 mph - 0.25 in Rain Rain
7:53 PM 64.0 °F 61.0 °F 90% 29.85 in 4.0 mi SSE 6.9 mph - 0.35 in Rain Light Rain
8:01 PM 64.4 °F 60.8 °F 88% 29.85 in 2.5 mi SSE 9.2 mph - 0.04 in Rain Light Rain
8:19 PM 64.4 °F 60.8 °F 88% 29.80 in 2.5 mi ESE 12.7 mph - 0.10 in Rain Rain
8:43 PM 64.4 °F 60.8 °F 88% 29.80 in 2.5 mi SE 11.5 mph - 0.16 in Rain Light Rain
8:53 PM 64.0 °F 61.0 °F 90% 29.80 in 2.5 mi SE 8.1 mph - 0.18 in Rain Light Rain
9:14 PM 64.4 °F 62.6 °F 94% 29.80 in 8.0 mi SE 4.6 mph - 0.04 in Rain Light Rain
9:53 PM 64.0 °F 62.1 °F 93% 29.78 in 10.0 mi SE 8.1 mph - 0.06 in   Overcast
10:53 PM 64.9 °F 62.1 °F 90% 29.80 in 10.0 mi South 6.9 mph - N/A   Overcast
11:53 PM 66.0 °F 63.0 °F 90% 29.80 in 10.0 mi SW 5.8 mph - N/A   Overcast